TimeCEST,TemperatureF,Dew PointF,Humidity,Sea Level PressureIn,VisibilityMPH,Wind Direction,Wind SpeedMPH,Gust SpeedMPH,PrecipitationIn,Events,Conditions,WindDirDegrees,DateUTC
12:45 AM,68.0,64.4,88,30.04,-9999.0,Calm,Calm,-,N/A,,Clear,0,2013-06-17 22:45:00
1:45 AM,66.2,64.4,94,30.04,-9999.0,Calm,Calm,-,N/A,,Clear,0,2013-06-17 23:45:00
2:00 AM,66,64,90,30.04,19,Calm,Calm,,,,Partly Cloudy,,2013-06-18 00:00:00
2:45 AM,64.4,64.4,100,30.04,-9999.0,WNW,1.2,-,N/A,,Clear,290,2013-06-18 00:45:00
3:45 AM,64.4,62.6,94,30.04,-9999.0,NNE,2.3,-,N/A,,Clear,20,2013-06-18 01:45:00
4:45 AM,62.6,62.6,100,30.04,-9999.0,Calm,Calm,-,N/A,,Clear,0,2013-06-18 02:45:00
5:45 AM,64.4,62.6,94,30.04,-9999.0,NW,2.3,-,N/A,,Clear,320,2013-06-18 03:45:00
6:15 AM,68.0,66.2,94,30.04,-9999.0,NNW,2.3,-,N/A,,Clear,330,2013-06-18 04:15:00
6:45 AM,73.4,69.8,88,30.04,-9999.0,NNW,1.2,-,N/A,,Clear,330,2013-06-18 04:45:00
7:15 AM,75.2,71.6,89,30.06,-9999.0,NW,1.2,-,N/A,,Clear,310,2013-06-18 05:15:00
7:45 AM,77.0,68.0,74,30.06,-9999.0,Calm,Calm,-,N/A,,Clear,0,2013-06-18 05:45:00
8:00 AM,78,68,63,30.04,22,Calm,Calm,,,,Partly Cloudy,,2013-06-18 06:00:00
8:15 AM,80.6,69.8,70,30.06,-9999.0,Calm,Calm,-,N/A,,Clear,0,2013-06-18 06:15:00
8:45 AM,82.4,69.8,66,30.06,-9999.0,WNW,1.2,-,N/A,,Clear,300,2013-06-18 06:45:00
9:15 AM,86.0,68.0,55,30.06,-9999.0,Calm,Calm,-,N/A,,Clear,0,2013-06-18 07:15:00
9:45 AM,86.0,66.2,51,30.06,-9999.0,NNE,1.2,-,N/A,,Clear,30,2013-06-18 07:45:00
10:15 AM,87.8,66.2,49,30.06,-9999.0,ENE,2.3,-,N/A,,Clear,60,2013-06-18 08:15:00
10:45 AM,87.8,66.2,49,30.06,-9999.0,North,3.5,-,N/A,,Clear,10,2013-06-18 08:45:00
11:15 AM,87.8,66.2,49,30.06,-9999.0,ENE,5.8,-,N/A,,Clear,60,2013-06-18 09:15:00
11:45 AM,89.6,66.2,46,30.06,-9999.0,East,6.9,-,N/A,,Clear,80,2013-06-18 09:45:00
12:15 PM,89.6,64.4,43,30.06,-9999.0,ENE,6.9,-,N/A,,Clear,60,2013-06-18 10:15:00
12:45 PM,91.4,64.4,41,30.04,-9999.0,East,3.5,-,N/A,,Clear,80,2013-06-18 10:45:00
1:15 PM,91.4,62.6,38,30.04,-9999.0,NNE,3.5,-,N/A,,Clear,30,2013-06-18 11:15:00
1:45 PM,89.6,68.0,49,30.04,-9999.0,NE,6.9,-,N/A,,Clear,40,2013-06-18 11:45:00
2:00 PM,90,68,39,30.02,31,NE,6.7,,,,Partly Cloudy,40,2013-06-18 12:00:00
2:15 PM,91.4,62.6,38,30.04,-9999.0,East,5.8,-,N/A,,Clear,90,2013-06-18 12:15:00
2:45 PM,91.4,62.6,38,30.04,-9999.0,ESE,6.9,-,N/A,,Clear,120,2013-06-18 12:45:00
3:15 PM,91.4,59.0,34,30.04,-9999.0,SE,4.6,-,N/A,,Clear,130,2013-06-18 13:15:00
3:45 PM,93.2,59.0,32,30.01,-9999.0,SE,4.6,-,N/A,,Clear,130,2013-06-18 13:45:00
4:15 PM,93.2,62.6,36,30.01,-9999.0,SSE,3.5,-,N/A,,Clear,150,2013-06-18 14:15:00
4:45 PM,93.2,62.6,36,30.01,-9999.0,West,1.2,-,N/A,,Clear,260,2013-06-18 14:45:00
5:15 PM,93.2,64.4,38,30.01,-9999.0,South,2.3,-,N/A,,Clear,180,2013-06-18 15:15:00
5:45 PM,91.4,64.4,41,29.98,-9999.0,South,2.3,-,N/A,,Clear,180,2013-06-18 15:45:00
6:15 PM,93.2,71.6,49,29.98,-9999.0,Calm,Calm,-,N/A,,Clear,0,2013-06-18 16:15:00
6:45 PM,91.4,69.8,49,29.98,-9999.0,WSW,2.3,-,N/A,,Clear,240,2013-06-18 16:45:00
7:15 PM,91.4,71.6,52,29.98,-9999.0,South,1.2,-,N/A,,Clear,190,2013-06-18 17:15:00
7:45 PM,87.8,73.4,62,30.01,-9999.0,WNW,1.2,-,N/A,,Clear,290,2013-06-18 17:45:00
8:00 PM,88,74,55,29.98,31,WNW,2.2,,,,Partly Cloudy,290,2013-06-18 18:00:00
8:15 PM,84.2,73.4,70,30.01,-9999.0,Calm,Calm,-,N/A,,Clear,0,2013-06-18 18:15:00
8:45 PM,80.6,71.6,74,30.01,-9999.0,NW,1.2,-,N/A,,Clear,310,2013-06-18 18:45:00
9:15 PM,77.0,68.0,74,30.01,-9999.0,NNE,3.5,-,N/A,,Clear,20,2013-06-18 19:15:00
9:45 PM,77.0,68.0,74,30.04,-9999.0,NNE,5.8,-,N/A,,Clear,20,2013-06-18 19:45:00
10:45 PM,75.2,68.0,78,30.04,-9999.0,NE,5.8,-,N/A,,Clear,40,2013-06-18 20:45:00
11:45 PM,71.6,68.0,88,30.04,-9999.0,East,1.2,-,N/A,,Clear,80,2013-06-18 21:45:00